This demonstration page uses our WeatherBlox Daily Observations layout. Learn more.

Left ArrowRight Arrow

41.12389, -100.76542

Hourly Observations for November 28, 2015

Temp ( °F °C ) Dew Point ( °F °C ) Humidity (%) Winds ( mph kmh ) Pressure ( in mb ) Visibility ( mi km ) Precip ( " mm )
12:53 am 00:53 Cloudy 24 -4.4 12 -11.1 60 60 Calm 30.55 1035 10 16 0.00 0.00
1:53 am 01:53 Cloudy 24 -4.4 13 -10.6 62 62 NE 3 6 30.52 1034 10 16 0.00 0.00
2:53 am 02:53 Cloudy 24 -4.4 12 -11.1 60 60 Calm 30.51 1033 10 16 0.00 0.00
3:53 am 03:53 Cloudy 24 -4.4 13 -10.6 62 62 Calm 30.49 1033 10 16 0.00 0.00
4:53 am 04:53 Cloudy 24 -4.4 13 -10.6 62 62 E 3 6 30.47 1032 10 16 0.00 0.00
5:53 am 05:53 Cloudy 24 -4.4 13 -10.6 62 62 E 5 7 30.47 1032 10 16 0.00 0.00
6:53 am 06:53 Cloudy 24 -4.4 14 -10 65 65 ENE 6 9 30.46 1031 10 16 0.00 0.00
7:53 am 07:53 Cloudy 24 -4.4 13 -10.6 62 62 ESE 3 6 30.47 1032 10 16 0.00 0.00
8:53 am 08:53 Cloudy 25 -3.9 14 -10 63 63 Calm 30.46 1032 10 16 0.00 0.00
9:53 am 09:53 Cloudy 26 -3.3 12 -11.1 55 55 Calm 30.47 1032 10 16 0.00 0.00
10:53 am 10:53 Cloudy 27 -2.8 12 -11.1 53 53 Calm 30.49 1032 10 16 0.00 0.00
11:53 am 11:53 Cloudy 27 -2.8 11 -11.7 51 51 Calm 30.48 1032 9 14 0.00 0.03
12:53 pm 12:53 Cloudy 27 -2.8 16 -8.9 63 63 E 3 6 30.43 1031 9 14 0.00 0.03
1:53 pm 13:53 Cloudy 28 -2.2 16 -8.9 60 60 E 3 6 30.42 1030 10 16 0.00 0.00
2:53 pm 14:53 Cloudy 28 -2.2 18 -7.8 66 66 Calm 30.39 1029 10 16 0.00 0.00
3:53 pm 15:53 Cloudy 28 -2.2 18 -7.8 66 66 Calm 30.40 1030 10 16 0.00 0.00
4:53 pm 16:53 Cloudy 28 -2.2 19 -7.2 69 69 NNW 3 6 30.40 1029 10 16 0.00 0.00
5:53 pm 17:53 Cloudy 26 -3.3 22 -5.6 84 84 N 3 6 30.41 1030 9 14 0.00 0.03
6:53 pm 18:53 Cloudy with Light Snow 26 -3.3 22 -5.6 84 84 NNE 3 6 30.41 1030 6 10 0.00 0.03
7:23 pm 19:23 Cloudy with Light Snow 27 -3 23 -5 86 86 ENE 3 6 30.45 1031 7 11 0.00 0.00
7:53 pm 19:53 Cloudy with Light Snow 26 -3.3 23 -5 88 88 ENE 3 6 30.41 1030 9 14 0.01 0.25
8:53 pm 20:53 Cloudy 26 -3.3 23 -5 88 88 E 3 6 30.40 1030 10 16 0.00 0.03
9:27 pm 21:27 Cloudy 26 -3.3 23 -5 88 88 ENE 3 6 30.45 1031 10 16 0.00 0.00
9:53 pm 21:53 Cloudy 26 -3.3 23 -5 88 88 Calm 30.40 1029 10 16 0.00 0.00
10:53 pm 22:53 Cloudy 26 -3.3 22 -5.6 84 84 Calm 30.39 1029 10 16 0.00 0.00
11:12 pm 23:12 Cloudy 27 -3 21 -6 80 80 Calm 30.45 1031 10 16 0.00 0.00
11:53 pm 23:53 Cloudy 26 -3.3 22 -5.6 84 84 Calm 30.40 1029 10 16 0.00 0.00

Powered by AerisWeather